Time,TemperatureF,DewpointF,PressureIn,WindDirection,WindDirectionDegrees,WindSpeedMPH,WindSpeedGustMPH,Humidity,HourlyPrecipIn,Conditions,Clouds,dailyrainin,SolarRadiationWatts/m^2,SoftwareType,DateUTC
2013-01-25 00:21:00,18.0,14.0,-100.00,SW,232,3.0,6.0,84,0.00,,,0.00,0.000000,,2013-01-25 06:21:00,
2013-01-25 00:32:00,18.0,14.0,-100.00,SW,232,3.0,6.0,84,0.00,,,0.00,0.000000,,2013-01-25 06:32:00,
2013-01-25 00:42:00,18.0,14.0,-100.00,SW,232,3.0,6.0,84,0.00,,,0.00,0.000000,,2013-01-25 06:42:00,
2013-01-25 00:52:00,18.0,14.0,-100.00,SW,232,3.0,6.0,84,0.00,,,0.00,0.000000,,2013-01-25 06:52:00,
2013-01-25 02:21:00,14.0,12.0,-100.00,SW,218,2.0,5.0,92,-99.99,,,0.00,0.000000,,2013-01-25 08:21:00,
2013-01-25 02:32:00,14.0,12.0,-100.00,SW,218,2.0,5.0,92,-99.99,,,0.00,0.000000,,2013-01-25 08:32:00,
2013-01-25 02:41:00,14.0,12.0,-100.00,SW,218,2.0,5.0,92,-99.99,,,0.00,0.000000,,2013-01-25 08:41:00,
2013-01-25 02:52:00,14.0,12.0,-100.00,SW,218,2.0,5.0,92,-99.99,,,0.00,0.000000,,2013-01-25 08:52:00,
2013-01-25 03:21:00,13.0,11.0,-100.00,West,260,6.0,7.0,93,0.00,,,0.00,0.000000,,2013-01-25 09:21:00,
2013-01-25 03:31:00,13.0,11.0,-100.00,West,260,6.0,7.0,93,0.00,,,0.00,0.000000,,2013-01-25 09:31:00,
2013-01-25 03:42:00,13.0,11.0,-100.00,West,260,6.0,7.0,93,0.00,,,0.00,0.000000,,2013-01-25 09:42:00,
2013-01-25 03:51:00,13.0,11.0,-100.00,West,260,6.0,7.0,93,0.00,,,0.00,0.000000,,2013-01-25 09:51:00,
2013-01-25 04:21:00,13.0,10.0,-100.00,WSW,239,7.0,7.0,89,0.00,,,0.00,0.000000,,2013-01-25 10:21:00,
2013-01-25 04:32:00,13.0,10.0,-100.00,WSW,239,7.0,7.0,89,0.00,,,0.00,0.000000,,2013-01-25 10:32:00,
2013-01-25 04:42:00,13.0,10.0,-100.00,WSW,239,7.0,7.0,89,0.00,,,0.00,0.000000,,2013-01-25 10:42:00,
2013-01-25 04:51:00,13.0,10.0,-100.00,WSW,239,7.0,7.0,89,0.00,,,0.00,0.000000,,2013-01-25 10:51:00,
2013-01-25 05:22:00,14.0,11.0,-100.00,WSW,246,7.0,9.0,89,0.00,,,0.00,0.000000,,2013-01-25 11:22:00,
2013-01-25 05:32:00,14.0,11.0,-100.00,WSW,246,7.0,9.0,89,0.00,,,0.00,0.000000,,2013-01-25 11:32:00,
2013-01-25 05:42:00,14.0,11.0,-100.00,WSW,246,7.0,9.0,89,0.00,,,0.00,0.000000,,2013-01-25 11:42:00,
2013-01-25 05:52:00,14.0,11.0,-100.00,WSW,246,7.0,9.0,89,0.00,,,0.00,0.000000,,2013-01-25 11:52:00,
2013-01-25 06:22:00,13.0,11.0,-100.00,WSW,239,6.0,8.0,91,0.00,,,0.00,0.000000,,2013-01-25 12:22:00,
2013-01-25 06:32:00,13.0,11.0,-100.00,WSW,239,6.0,8.0,91,0.00,,,0.00,0.000000,,2013-01-25 12:32:00,
2013-01-25 06:42:00,13.0,11.0,-100.00,WSW,239,6.0,8.0,91,0.00,,,0.00,0.000000,,2013-01-25 12:42:00,
2013-01-25 06:53:00,13.0,11.0,-100.00,WSW,239,6.0,8.0,91,0.00,,,0.00,0.000000,,2013-01-25 12:53:00,
2013-01-25 07:22:00,14.0,13.0,-100.00,WSW,243,7.0,8.0,94,0.00,,,0.00,0.000000,,2013-01-25 13:22:00,
2013-01-25 07:32:00,14.0,13.0,-100.00,WSW,243,7.0,8.0,94,0.00,,,0.00,0.000000,,2013-01-25 13:32:00,
2013-01-25 07:42:00,14.0,13.0,-100.00,WSW,243,7.0,8.0,94,0.00,,,0.00,0.000000,,2013-01-25 13:42:00,
2013-01-25 07:52:00,14.0,13.0,-100.00,WSW,243,7.0,8.0,94,0.00,,,0.00,0.000000,,2013-01-25 13:52:00,
2013-01-25 08:23:00,14.0,13.0,-100.00,WSW,248,6.0,7.0,95,0.00,,,0.00,2.000000,,2013-01-25 14:23:00,
2013-01-25 08:32:00,14.0,13.0,-100.00,WSW,248,6.0,7.0,95,0.00,,,0.00,2.000000,,2013-01-25 14:32:00,
2013-01-25 08:42:00,14.0,13.0,-100.00,WSW,248,6.0,7.0,95,0.00,,,0.00,2.000000,,2013-01-25 14:42:00,
2013-01-25 08:52:00,14.0,13.0,-100.00,WSW,248,6.0,7.0,95,0.00,,,0.00,2.000000,,2013-01-25 14:52:00,
2013-01-25 09:22:00,22.0,21.0,-100.00,WSW,248,4.0,9.0,95,0.00,,,0.00,100.000000,,2013-01-25 15:22:00,
2013-01-25 09:32:00,22.0,21.0,-100.00,WSW,248,4.0,9.0,95,0.00,,,0.00,100.000000,,2013-01-25 15:32:00,
2013-01-25 09:42:00,22.0,21.0,-100.00,WSW,248,4.0,9.0,95,0.00,,,0.00,100.000000,,2013-01-25 15:42:00,
2013-01-25 09:52:00,22.0,21.0,-100.00,WSW,248,4.0,9.0,95,0.00,,,0.00,100.000000,,2013-01-25 15:52:00,
2013-01-25 10:22:00,33.0,28.0,-100.00,WSW,245,8.0,11.0,81,0.00,,,0.00,287.000000,,2013-01-25 16:22:00,
2013-01-25 10:32:00,33.0,28.0,-100.00,WSW,245,8.0,11.0,81,0.00,,,0.00,287.000000,,2013-01-25 16:32:00,
2013-01-25 10:43:00,33.0,28.0,-100.00,WSW,245,8.0,11.0,81,0.00,,,0.00,287.000000,,2013-01-25 16:43:00,
2013-01-25 10:52:00,33.0,28.0,-100.00,WSW,245,8.0,11.0,81,0.00,,,0.00,287.000000,,2013-01-25 16:52:00,
2013-01-25 11:22:00,39.0,25.0,-100.00,WNW,299,7.0,11.0,57,0.00,,,0.00,438.000000,,2013-01-25 17:22:00,
2013-01-25 11:32:00,39.0,25.0,-100.00,WNW,299,7.0,11.0,57,0.00,,,0.00,438.000000,,2013-01-25 17:32:00,
2013-01-25 11:43:00,39.0,25.0,-100.00,WNW,299,7.0,11.0,57,0.00,,,0.00,438.000000,,2013-01-25 17:43:00,
2013-01-25 11:52:00,39.0,25.0,-100.00,WNW,299,7.0,11.0,57,0.00,,,0.00,438.000000,,2013-01-25 17:52:00,
2013-01-25 12:23:00,45.0,27.0,-100.00,NNW,347,8.0,12.0,50,0.00,,,0.00,569.000000,,2013-01-25 18:23:00,
2013-01-25 12:33:00,45.0,27.0,-100.00,NNW,347,8.0,12.0,50,0.00,,,0.00,569.000000,,2013-01-25 18:33:00,
2013-01-25 12:42:00,45.0,27.0,-100.00,NNW,347,8.0,12.0,50,0.00,,,0.00,569.000000,,2013-01-25 18:42:00,
2013-01-25 12:52:00,45.0,27.0,-100.00,NNW,347,8.0,12.0,50,0.00,,,0.00,569.000000,,2013-01-25 18:52:00,
2013-01-25 13:22:00,47.0,25.0,-100.00,NW,308,6.0,11.0,42,0.00,,,0.00,613.000000,,2013-01-25 19:22:00,
2013-01-25 13:32:00,47.0,25.0,-100.00,NW,308,6.0,11.0,42,0.00,,,0.00,613.000000,,2013-01-25 19:32:00,
2013-01-25 13:42:00,47.0,25.0,-100.00,NW,308,6.0,11.0,42,0.00,,,0.00,613.000000,,2013-01-25 19:42:00,
2013-01-25 13:52:00,47.0,25.0,-100.00,NW,308,6.0,11.0,42,0.00,,,0.00,613.000000,,2013-01-25 19:52:00,
2013-01-25 14:22:00,48.0,25.0,-100.00,WSW,239,6.0,10.0,40,0.00,,,0.00,453.000000,,2013-01-25 20:22:00,
2013-01-25 14:32:00,48.0,25.0,-100.00,WSW,239,6.0,10.0,40,0.00,,,0.00,453.000000,,2013-01-25 20:32:00,
2013-01-25 14:42:00,48.0,25.0,-100.00,WSW,239,6.0,10.0,40,0.00,,,0.00,453.000000,,2013-01-25 20:42:00,
2013-01-25 14:52:00,48.0,25.0,-100.00,WSW,239,6.0,10.0,40,0.00,,,0.00,453.000000,,2013-01-25 20:52:00,
2013-01-25 15:23:00,49.0,27.0,-100.00,SW,218,7.0,10.0,43,0.00,,,0.00,389.000000,,2013-01-25 21:23:00,
2013-01-25 15:33:00,49.0,27.0,-100.00,SW,218,7.0,10.0,43,0.00,,,0.00,389.000000,,2013-01-25 21:33:00,
2013-01-25 15:42:00,49.0,27.0,-100.00,SW,218,7.0,10.0,43,0.00,,,0.00,389.000000,,2013-01-25 21:42:00,
2013-01-25 15:52:00,49.0,27.0,-100.00,SW,218,7.0,10.0,43,0.00,,,0.00,389.000000,,2013-01-25 21:52:00,
2013-01-25 16:22:00,47.0,27.0,-100.00,SW,220,5.0,10.0,45,0.00,,,0.00,253.000000,,2013-01-25 22:22:00,
2013-01-25 16:33:00,47.0,27.0,-100.00,SW,220,5.0,10.0,45,0.00,,,0.00,253.000000,,2013-01-25 22:33:00,
2013-01-25 16:42:00,47.0,27.0,-100.00,SW,220,5.0,10.0,45,0.00,,,0.00,253.000000,,2013-01-25 22:42:00,
2013-01-25 16:52:00,47.0,27.0,-100.00,SW,220,5.0,10.0,45,0.00,,,0.00,253.000000,,2013-01-25 22:52:00,
2013-01-25 17:22:00,43.0,29.0,-100.00,South,187,5.0,6.0,57,0.00,,,0.00,106.000000,,2013-01-25 23:22:00,
2013-01-25 17:32:00,43.0,29.0,-100.00,South,187,5.0,6.0,57,0.00,,,0.00,106.000000,,2013-01-25 23:32:00,
2013-01-25 17:42:00,43.0,29.0,-100.00,South,187,5.0,6.0,57,0.00,,,0.00,106.000000,,2013-01-25 23:42:00,
2013-01-25 17:52:00,43.0,29.0,-100.00,South,187,5.0,6.0,57,0.00,,,0.00,106.000000,,2013-01-25 23:52:00,
2013-01-25 18:22:00,39.0,30.0,-100.00,South,180,8.0,9.0,69,0.00,,,0.00,23.000000,,2013-01-26 00:22:00,
2013-01-25 18:32:00,39.0,30.0,-100.00,South,180,8.0,9.0,69,0.00,,,0.00,23.000000,,2013-01-26 00:32:00,
2013-01-25 18:42:00,39.0,30.0,-100.00,South,180,8.0,9.0,69,0.00,,,0.00,23.000000,,2013-01-26 00:42:00,
2013-01-25 18:52:00,39.0,30.0,-100.00,South,180,8.0,9.0,69,0.00,,,0.00,23.000000,,2013-01-26 00:52:00,
2013-01-25 19:22:00,35.0,29.0,-100.00,SSW,194,5.0,9.0,78,0.00,,,0.00,0.000000,,2013-01-26 01:22:00,
2013-01-25 19:32:00,35.0,29.0,-100.00,SSW,194,5.0,9.0,78,0.00,,,0.00,0.000000,,2013-01-26 01:32:00,
2013-01-25 19:42:00,35.0,29.0,-100.00,SSW,194,5.0,9.0,78,0.00,,,0.00,0.000000,,2013-01-26 01:42:00,
2013-01-25 19:52:00,35.0,29.0,-100.00,SSW,194,5.0,9.0,78,0.00,,,0.00,0.000000,,2013-01-26 01:52:00,
2013-01-25 20:22:00,32.0,30.0,-100.00,East,89,2.0,7.0,94,0.00,,,0.00,0.000000,,2013-01-26 02:22:00,
2013-01-25 20:32:00,32.0,30.0,-100.00,East,89,2.0,7.0,94,0.00,,,0.00,0.000000,,2013-01-26 02:32:00,
2013-01-25 20:42:00,32.0,30.0,-100.00,East,89,2.0,7.0,94,0.00,,,0.00,0.000000,,2013-01-26 02:42:00,
2013-01-25 20:52:00,32.0,30.0,-100.00,East,89,2.0,7.0,94,0.00,,,0.00,0.000000,,2013-01-26 02:52:00,
2013-01-25 21:22:00,29.0,26.0,-100.00,SE,133,5.0,7.0,87,0.00,,,0.00,0.000000,,2013-01-26 03:22:00,
2013-01-25 21:32:00,29.0,26.0,-100.00,SE,133,5.0,7.0,87,0.00,,,0.00,0.000000,,2013-01-26 03:32:00,
2013-01-25 21:43:00,29.0,26.0,-100.00,SE,133,5.0,7.0,87,0.00,,,0.00,0.000000,,2013-01-26 03:43:00,
2013-01-25 21:52:00,29.0,26.0,-100.00,SE,133,5.0,7.0,87,0.00,,,0.00,0.000000,,2013-01-26 03:52:00,
2013-01-25 22:21:00,30.0,27.0,-100.00,SSE,147,7.0,9.0,89,0.00,,,0.00,0.000000,,2013-01-26 04:21:00,
2013-01-25 22:32:00,30.0,27.0,-100.00,SSE,147,7.0,9.0,89,0.00,,,0.00,0.000000,,2013-01-26 04:32:00,
2013-01-25 22:42:00,30.0,27.0,-100.00,SSE,147,7.0,9.0,89,0.00,,,0.00,0.000000,,2013-01-26 04:42:00,
2013-01-25 22:52:00,30.0,27.0,-100.00,SSE,147,7.0,9.0,89,0.00,,,0.00,0.000000,,2013-01-26 04:52:00,
2013-01-25 23:23:00,29.0,27.0,-100.00,SE,134,7.0,9.0,94,0.00,,,0.00,0.000000,,2013-01-26 05:23:00,
2013-01-25 23:33:00,29.0,27.0,-100.00,SE,134,7.0,9.0,94,0.00,,,0.00,0.000000,,2013-01-26 05:33:00,
2013-01-25 23:41:00,29.0,27.0,-100.00,SE,134,7.0,9.0,94,0.00,,,0.00,0.000000,,2013-01-26 05:41:00,
2013-01-25 23:52:00,29.0,27.0,-100.00,SE,134,7.0,9.0,94,0.00,,,0.00,0.000000,,2013-01-26 05:52:00,